Погода в Коммунаре

Погода в Коммунаре : погода сейчас, прогноз погоды и архив. Всё, что Вы хотите узнать о погоде в Коммунаре!

Хотите узнать прогноз погоды в Коммунаре? Тогда Вам сюда: Погода в Коммунаре

Поиск расширенной информации на нашем сайте:

Другие новости

Новости СМИ2

Главная страница сайта

Новости сайта

03.07.2017

Напоминаем, что на нашем специализированном сайте Метеоцентр.Азия вы можете получить высокодетализированные автоматические прогнозы погоды по пунктам России, СНГ и мира в авиационном формате (включающие направление и скорость ветра, видимость, явления погоды, количество и форму облачности, нижнюю и верхнюю границу облачности).


Погода в Коммунаре - сегодня

Время (UTC), дата Ветер
(°,м/с) 
Видим.   Явления Облачность Т
(°С)
Тd
(°С)
f(%) Тe
(°С)
Pmin
(гПа)
dP
(гПа)
Po
(мм)
O2
(г/м3)
Тmin Tmax R s Состояние
почвы
09 18.04.18 270 (З) 20000 м  в посл. час ливневой снег  8/8 600 м кучево-дожд. 
[Cb cap]
-2.2 -9.8 56 -2  1020.4  0.2  688  280           
12 18.04.18 200 (Ю) 20000 м  {ливн. осадки}  6/4 600 м верхняя 
[Sc|Ci fib]
-4.1 -10.4 61 -5  1021  -0.2  689  282    -2.1  0.0     
15 18.04.18 тихо ()   н/о    ясно 
-8.7 -10.6 86 -9  1023.7  0.7  689  288           
18 18.04.18 тихо ()   н/о    ясно 
-10.5 -11.8 90 -11  1025  0.5  689  290           
21 18.04.18 тихо ()   н/о    8/0 средняя 
[Ac trans]
-11.3 -12.6 90 -11  1025.8  0.4  690  291           
00 19.04.18 тихо ()   20000 м    8/0 средняя, верхняя 
[Ac trans|Cc]
-9.9 -11.2 90 -10  1025.4  0.2  690  289  -11.3      23  равномерный
мокрый или
старый снег
100% 
03 19.04.18 230 (ЮЗ) 20000 м  слаб. ливневой снег  8/4 600 м кучево-дожд., средняя, верхняя 
[Cb cap|Ac trans|Ci fib]
-3.9 -9.7 64 -5  1023.1  0.1  690  283           
06 19.04.18 230 (ЮЗ) 20000 м  в посл. час ливневой снег  8/3 600 м кучево-дожд., средняя, верхняя 
[Cb cap|Ac trans|Ci fib]
-0.8 -10.9 46 -2  1020.6  -1.1  689  279           
09 19.04.18 230 (ЮЗ) 20000 м    9/8 600 м верхняя 
[Cu Sc|Ci fib]
-1 -11.2 46 1019.5  -1.1  688  279           
12 19.04.18 230 (ЮЗ) 20000 м    8/3 600 м верхняя 
[Sc|Ci fib]
-2.2 -6.9 70 -2  1018.8  -0.9  688  280    +0.6  0.0     
15 19.04.18 270 (З) н/о    6/0 верхняя 
[Ci fib]
-6.3 -7.9 88 -6  1020.6  688  284           
18 19.04.18 230 (ЮЗ) н/о    8/0 верхняя 
[Ci fib]
-7.5 -8.8 90 -7  1020.3  -0.7  687  285           
21 19.04.18 тихо ()   н/о    8/0 средняя, верхняя 
[Ac trans|Ci fib]
-6.9 -8.2 90 -7  1020.2  0.2  687  285           
00 20.04.18 тихо ()   20000 м    3/0 средняя, верхняя 
[Ac trans|Ci fib]
-7.9 -9.3 90 -8  1022.9  689  287  -7.9      23  равномерный
мокрый или
старый снег
100% 
03 20.04.18 200 (Ю) 20000 м    ясно 
-0.3 -8.6 53 1021.9  1.9  690  279           
06 20.04.18 270 (З) 20000 м    3/3 600 м 
[Sc]
+2.6 -10.7 37 +2  1022.1  1.2  691  277           
09 20.04.18 230 (ЮЗ) 20000 м    ясно 
+3.3 -11 34 +3  1021.8  691  276           
12 20.04.18 230 (ЮЗ) 20000 м    4/0 верхняя 
[Ci fib]
+1.4 -10.2 42 +2  1022.6  691  278    +3.9       
15 20.04.18 тихо ()   н/о    3/0 верхняя 
[Ci fib]
-2.4 -8 65 -2  1024.4  0.2  691  282           
18 20.04.18 230 (ЮЗ) н/о    4/0 верхняя 
[Ci fib]
-1.8 -7.9 63 -1  1023  -1  690  281           
21 20.04.18 200 (Ю) н/о    3/0 верхняя 
[Ci fib]
-1.8 -7.5 65 -3  1021.9  -0.9  690  280           
00 21.04.18 090 (В) 20000 м    8/0 верхняя 
[Cc]
-1.6 -6.8 68 -1  1022.1  0.3  690  280  -2.4      19  равномерный
мокрый или
старый снег
100% 
03 21.04.18 200 (Ю) 3-10  20000 м    6/0 верхняя 
[Ci fib]
+4.6 -5.8 47 +3  1020.2  0.4  690  274           
06 21.04.18 230 (ЮЗ) 20000 м    10/0 средняя, верхняя 
[Ac trans|Cs]
+5.7 -6.6 41 +5  1021.1  1.1  691  273           
09 21.04.18 тихо ()   20000 м    10/0 средняя 
[Ac As]
+7 -4 45 +7  1020.3  -0.2  691  272           
Время (UTC), дата Ветер
(°,м/с) 
Видим.   Явления Облачность Т
(°С)
Тd
(°С)
f(%) Тe
(°С)
Pmin
(гПа)
dP
(гПа)
Po
(мм)
O2
(г/м3)
Тmin Tmax R s Состояние
почвы

Для получения пояснительной информации подведите курсор к названию столбца.

ПОГОДА в Коммунаре - архив

Всё, что Вы хотите узнать о погоде в Коммунаре - удобно и подробно!

Выберите нужную дату (начиная с 1 января 2015* года) и нажмите кнопку "Найти".
Будут отображены архивные сводки погоды по пункту Коммунар, начиная с указанной даты.


Отображать данные в формате CSV (для использования в таблицах Excel)


Внимание! Наш архив погоды предназначен исключительно для личного некоммерческого использования в познавательных целях. Если Вам необходимы официальные справки о состоянии погоды (для производственных, юридических, коммерческих и т.п. целей), обращайтесь в органы Росгидромета.

*Примечание: данная дата относится к архиву по метеостанциям СССР (Россия, СНГ, Балтия).
Архив по метеостанциям Зарубежной Европы и Азии (кроме Китая) хранится 10 дней, по другим регионам земного шара (Китай, Африка, Америка, Австралия, Океания) - 1 день.

Коммунар - район местоположения метеостанции


Название, широта, долгота, высота метеостанции:
Коммунар 54.3°ш. 89.3°д. 847 м над ур. моря [Российская Федерация]

Дополнительная информация

В oтличие oт бoльшинства пoгoдных сайтoв мы публикуем пoдрoбную метеoинфoрмацию в детальнoм прoфессиoнальнoм фoрмате.

Характеристики температуры и влажнoсти вoздуха измеряются на высoте 2 м в тени вдали oт зданий и деревьев.
Скoрoсть ветра измеряется на высoте 10 м (на урoвне рoста челoвека скoрoсть ветра ниже в 1.5-2 раза). Если метеoстанция нахoдится в гoрoде или в лесу, тo скoрoсть ветра занижена на 2-4 м/с пo сравнению с oткрытым местoм. Скoрoсть ветра над акватoриями крупных рек и oзёр, а также на вершинах хoлмoв на 2-5 м/с выше, чем в oбычных услoвиях.
Атмoсфернoе давление в разных тoчках местнoсти мoжет значительнo oтличаться oт давления на метеoстанции, в зависимoсти oт услoвий рельефа (при пoдъёме на 10 м давление пoнижается примернo на 1 мм рт.ст.).